Time,TemperatureF,DewpointF,PressureIn,WindDirection,WindDirectionDegrees,WindSpeedMPH,WindSpeedGustMPH,Humidity,HourlyPrecipIn,Conditions,Clouds,dailyrainin,SoftwareType,DateUTC
2013-05-08 00:02:00,61.0,56.0,30.09,NE,53,1.0,5.0,83,0.00,,,0.00,,2013-05-08 04:02:00,
2013-05-08 00:13:00,61.0,56.0,30.09,NE,53,1.0,5.0,83,0.00,,,0.00,,2013-05-08 04:13:00,
2013-05-08 00:23:00,61.0,56.0,30.09,ENE,73,1.0,3.0,83,0.00,,,0.00,,2013-05-08 04:23:00,
2013-05-08 00:33:00,60.0,55.0,30.09,East,96,0.0,6.0,83,0.00,,,0.00,,2013-05-08 04:33:00,
2013-05-08 00:43:00,60.0,55.0,30.09,East,96,0.0,6.0,83,0.00,,,0.00,,2013-05-08 04:43:00,
2013-05-08 00:52:00,60.0,55.0,30.08,East,90,1.0,3.0,83,0.00,,,0.00,,2013-05-08 04:52:00,
2013-05-08 01:02:00,60.0,55.0,30.08,East,88,0.0,2.0,83,0.00,,,0.00,,2013-05-08 05:02:00,
2013-05-08 01:12:00,60.0,55.0,30.08,East,88,0.0,2.0,83,0.00,,,0.00,,2013-05-08 05:12:00,
2013-05-08 01:22:00,60.0,55.0,30.08,East,88,1.0,3.0,84,0.00,,,0.00,,2013-05-08 05:22:00,
2013-05-08 01:32:00,59.0,54.0,30.08,NE,48,0.0,3.0,85,0.00,,,0.00,,2013-05-08 05:32:00,
2013-05-08 01:42:00,59.0,54.0,30.08,NE,48,0.0,3.0,85,0.00,,,0.00,,2013-05-08 05:42:00,
2013-05-08 01:52:00,59.0,54.0,30.08,East,98,0.0,6.0,85,0.00,,,0.00,,2013-05-08 05:52:00,
2013-05-08 02:02:00,59.0,54.0,30.07,NE,55,0.0,4.0,85,0.00,,,0.00,,2013-05-08 06:02:00,
2013-05-08 02:12:00,59.0,54.0,30.07,NE,55,0.0,4.0,85,0.00,,,0.00,,2013-05-08 06:12:00,
2013-05-08 02:21:00,59.0,54.0,30.07,ESE,116,0.0,7.0,85,0.00,,,0.00,,2013-05-08 06:21:00,
2013-05-08 02:32:00,59.0,54.0,30.06,ENE,75,1.0,3.0,85,0.00,,,0.00,,2013-05-08 06:32:00,
2013-05-08 02:42:00,59.0,54.0,30.06,ENE,75,1.0,3.0,85,0.00,,,0.00,,2013-05-08 06:42:00,
2013-05-08 02:52:00,59.0,55.0,30.05,ENE,74,3.0,5.0,86,0.00,,,0.00,,2013-05-08 06:52:00,
2013-05-08 03:02:00,59.0,55.0,30.05,ENE,70,1.0,4.0,86,0.00,,,0.00,,2013-05-08 07:02:00,
2013-05-08 03:11:00,59.0,55.0,30.05,ENE,70,1.0,4.0,86,0.00,,,0.00,,2013-05-08 07:11:00,
2013-05-08 03:21:00,58.0,54.0,30.05,ENE,70,0.0,3.0,87,0.00,,,0.00,,2013-05-08 07:21:00,
2013-05-08 03:32:00,58.0,54.0,30.05,ENE,65,1.0,3.0,87,0.00,,,0.00,,2013-05-08 07:32:00,
2013-05-08 03:42:00,58.0,54.0,30.05,ENE,65,1.0,3.0,87,0.00,,,0.00,,2013-05-08 07:42:00,
2013-05-08 03:52:00,58.0,54.0,30.05,ENE,78,1.0,3.0,88,0.00,,,0.00,,2013-05-08 07:52:00,
2013-05-08 04:02:00,58.0,54.0,30.06,East,92,1.0,5.0,88,0.00,,,0.00,,2013-05-08 08:02:00,
2013-05-08 04:12:00,58.0,54.0,30.06,East,92,1.0,5.0,88,0.00,,,0.00,,2013-05-08 08:12:00,
2013-05-08 04:21:00,58.0,55.0,30.05,ENE,72,2.0,8.0,89,0.00,,,0.00,,2013-05-08 08:21:00,
2013-05-08 04:32:00,58.0,55.0,30.04,ENE,74,2.0,5.0,89,0.00,,,0.00,,2013-05-08 08:32:00,
2013-05-08 04:42:00,58.0,55.0,30.04,ENE,74,2.0,5.0,89,0.00,,,0.00,,2013-05-08 08:42:00,
2013-05-08 04:51:00,58.0,55.0,30.05,East,94,1.0,3.0,89,0.00,,,0.00,,2013-05-08 08:51:00,
2013-05-08 05:02:00,58.0,55.0,30.04,East,80,1.0,2.0,89,0.00,,,0.00,,2013-05-08 09:02:00,
2013-05-08 05:11:00,58.0,55.0,30.04,East,80,1.0,2.0,89,0.00,,,0.00,,2013-05-08 09:11:00,
2013-05-08 05:21:00,58.0,55.0,30.04,East,80,0.0,2.0,89,0.00,,,0.00,,2013-05-08 09:21:00,
2013-05-08 05:32:00,58.0,55.0,30.04,East,80,0.0,0.0,89,0.00,,,0.00,,2013-05-08 09:32:00,
2013-05-08 05:42:00,58.0,55.0,30.04,East,80,0.0,0.0,89,0.00,,,0.00,,2013-05-08 09:42:00,
2013-05-08 05:52:00,58.0,55.0,30.04,ENE,72,2.0,8.0,90,0.00,,,0.00,,2013-05-08 09:52:00,
2013-05-08 06:02:00,58.0,55.0,30.04,East,84,3.0,8.0,90,0.00,,,0.00,,2013-05-08 10:02:00,
2013-05-08 06:12:00,58.0,55.0,30.04,East,84,3.0,8.0,90,0.00,,,0.00,,2013-05-08 10:12:00,
2013-05-08 06:22:00,58.0,55.0,30.05,ENE,69,3.0,8.0,90,0.00,,,0.00,,2013-05-08 10:22:00,
2013-05-08 06:33:00,58.0,55.0,30.05,East,80,5.0,9.0,90,0.00,,,0.00,,2013-05-08 10:33:00,
2013-05-08 06:42:00,58.0,55.0,30.05,East,80,5.0,9.0,90,0.00,,,0.00,,2013-05-08 10:42:00,
2013-05-08 06:52:00,58.0,55.0,30.05,ENE,70,1.0,6.0,90,0.00,,,0.00,,2013-05-08 10:52:00,
2013-05-08 07:02:00,58.0,55.0,30.06,East,83,1.0,6.0,91,0.00,,,0.00,,2013-05-08 11:02:00,
2013-05-08 07:11:00,58.0,55.0,30.06,East,83,1.0,6.0,91,0.00,,,0.00,,2013-05-08 11:11:00,
2013-05-08 07:22:00,58.0,55.0,30.06,SE,130,1.0,5.0,91,0.00,,,0.00,,2013-05-08 11:22:00,
2013-05-08 07:32:00,58.0,55.0,30.07,East,81,0.0,3.0,91,0.10,,,0.10,,2013-05-08 11:32:00,
2013-05-08 07:42:00,58.0,55.0,30.07,East,81,0.0,3.0,91,0.10,,,0.10,,2013-05-08 11:42:00,
2013-05-08 07:52:00,59.0,56.0,30.07,East,80,0.0,3.0,91,0.12,,,0.12,,2013-05-08 11:52:00,
2013-05-08 08:01:00,59.0,56.0,30.07,ENE,76,0.0,4.0,91,0.16,,,0.16,,2013-05-08 12:01:00,
2013-05-08 08:11:00,59.0,56.0,30.07,ENE,76,0.0,4.0,91,0.16,,,0.16,,2013-05-08 12:11:00,
2013-05-08 08:21:00,59.0,56.0,30.06,NE,53,0.0,4.0,91,0.00,,,0.17,,2013-05-08 12:21:00,
2013-05-08 08:32:00,59.0,57.0,30.06,ENE,63,2.0,8.0,92,0.01,,,0.18,,2013-05-08 12:32:00,
2013-05-08 08:42:00,59.0,57.0,30.06,ENE,63,2.0,8.0,92,0.01,,,0.18,,2013-05-08 12:42:00,
2013-05-08 08:51:00,59.0,57.0,30.06,East,80,2.0,7.0,92,0.01,,,0.00,,2013-05-08 12:51:00,
2013-05-08 09:01:00,59.0,57.0,30.06,ENE,67,4.0,8.0,92,0.01,,,0.00,,2013-05-08 13:01:00,
2013-05-08 09:11:00,59.0,57.0,30.06,ENE,67,4.0,8.0,92,0.01,,,0.00,,2013-05-08 13:11:00,
2013-05-08 09:21:00,60.0,58.0,30.05,ENE,63,3.0,10.0,92,0.01,,,0.00,,2013-05-08 13:21:00,
2013-05-08 09:32:00,60.0,58.0,30.05,NE,51,4.0,11.0,92,0.00,,,0.00,,2013-05-08 13:32:00,
2013-05-08 09:42:00,60.0,58.0,30.05,NE,51,4.0,11.0,92,0.00,,,0.00,,2013-05-08 13:42:00,
2013-05-08 09:52:00,60.0,58.0,30.06,East,83,2.0,9.0,93,0.03,,,0.03,,2013-05-08 13:52:00,
2013-05-08 10:02:00,60.0,58.0,30.06,WSW,240,0.0,3.0,93,0.19,,,0.19,,2013-05-08 14:02:00,
2013-05-08 10:11:00,60.0,58.0,30.06,WSW,240,0.0,3.0,93,0.19,,,0.19,,2013-05-08 14:11:00,
2013-05-08 10:21:00,60.0,58.0,30.06,WSW,240,0.0,0.0,93,0.20,,,0.20,,2013-05-08 14:21:00,
2013-05-08 10:32:00,60.0,58.0,30.05,NE,47,1.0,4.0,93,0.06,,,0.26,,2013-05-08 14:32:00,
2013-05-08 10:42:00,60.0,58.0,30.05,NE,47,1.0,4.0,93,0.06,,,0.26,,2013-05-08 14:42:00,
2013-05-08 10:51:00,60.0,58.0,30.06,SW,220,3.0,5.0,93,0.15,,,0.35,,2013-05-08 14:51:00,
2013-05-08 11:02:00,60.0,58.0,30.06,WNW,300,0.0,2.0,93,0.32,,,0.52,,2013-05-08 15:02:00,
2013-05-08 11:11:00,60.0,58.0,30.06,WNW,300,0.0,2.0,93,0.32,,,0.52,,2013-05-08 15:11:00,
2013-05-08 11:21:00,60.0,58.0,30.06,WNW,298,0.0,0.0,93,0.33,,,0.53,,2013-05-08 15:21:00,
2013-05-08 11:33:00,61.0,59.0,30.05,ENE,65,1.0,7.0,94,0.00,,,0.53,,2013-05-08 15:33:00,
2013-05-08 11:42:00,61.0,59.0,30.05,ENE,65,1.0,7.0,94,0.00,,,0.53,,2013-05-08 15:42:00,
2013-05-08 11:52:00,61.0,59.0,30.05,ENE,73,1.0,5.0,94,0.00,,,0.53,,2013-05-08 15:52:00,
2013-05-08 12:03:00,61.0,59.0,30.04,ESE,122,1.0,6.0,94,0.00,,,0.53,,2013-05-08 16:03:00,
2013-05-08 12:12:00,61.0,59.0,30.04,ESE,122,1.0,6.0,94,0.00,,,0.53,,2013-05-08 16:12:00,
2013-05-08 12:23:00,61.0,59.0,30.03,ESE,110,2.0,7.0,94,0.00,,,0.53,,2013-05-08 16:23:00,
2013-05-08 12:33:00,62.0,60.0,30.02,ENE,58,3.0,8.0,94,0.00,,,0.53,,2013-05-08 16:33:00,
2013-05-08 12:42:00,62.0,60.0,30.02,ENE,58,3.0,8.0,94,0.00,,,0.53,,2013-05-08 16:42:00,
2013-05-08 12:52:00,62.0,60.0,30.01,ENE,66,3.0,11.0,94,0.00,,,0.53,,2013-05-08 16:52:00,
2013-05-08 13:02:00,62.0,60.0,30.00,ESE,107,2.0,15.0,94,0.00,,,0.53,,2013-05-08 17:02:00,
2013-05-08 13:12:00,62.0,60.0,30.00,ESE,107,2.0,15.0,94,0.00,,,0.53,,2013-05-08 17:12:00,
2013-05-08 13:22:00,62.0,60.0,29.99,ENE,64,5.0,14.0,94,0.00,,,0.53,,2013-05-08 17:22:00,
2013-05-08 13:32:00,62.0,60.0,29.99,ENE,64,5.0,14.0,94,0.00,,,0.53,,2013-05-08 17:32:00,
2013-05-08 13:41:00,62.0,60.0,29.99,ENE,64,5.0,14.0,94,0.00,,,0.53,,2013-05-08 17:41:00,
2013-05-08 13:52:00,62.0,60.0,29.99,East,81,2.0,7.0,94,0.04,,,0.57,,2013-05-08 17:52:00,
2013-05-08 14:02:00,62.0,60.0,29.98,ENE,78,4.0,12.0,94,0.08,,,0.61,,2013-05-08 18:02:00,
2013-05-08 14:12:00,62.0,60.0,29.98,ENE,78,4.0,12.0,94,0.08,,,0.61,,2013-05-08 18:12:00,
2013-05-08 14:21:00,62.0,60.0,29.98,ENE,57,2.0,6.0,94,0.10,,,0.63,,2013-05-08 18:21:00,
2013-05-08 14:32:00,62.0,60.0,29.98,East,94,2.0,6.0,94,0.08,,,0.71,,2013-05-08 18:32:00,
2013-05-08 14:42:00,62.0,60.0,29.98,East,94,2.0,6.0,94,0.08,,,0.71,,2013-05-08 18:42:00,
2013-05-08 14:52:00,62.0,60.0,29.98,NNE,26,1.0,7.0,94,0.08,,,0.71,,2013-05-08 18:52:00,
2013-05-08 15:01:00,62.0,60.0,29.98,East,91,2.0,13.0,94,0.08,,,0.71,,2013-05-08 19:01:00,
2013-05-08 15:11:00,62.0,60.0,29.98,East,91,2.0,13.0,94,0.08,,,0.71,,2013-05-08 19:11:00,
2013-05-08 15:22:00,61.0,59.0,29.98,East,81,2.0,9.0,94,0.08,,,0.71,,2013-05-08 19:22:00,
2013-05-08 15:32:00,61.0,59.0,29.98,SE,130,1.0,10.0,94,0.00,,,0.71,,2013-05-08 19:32:00,
2013-05-08 15:42:00,61.0,59.0,29.98,SE,130,1.0,10.0,94,0.00,,,0.71,,2013-05-08 19:42:00,
2013-05-08 15:52:00,61.0,59.0,29.98,SE,132,0.0,5.0,94,0.00,,,0.71,,2013-05-08 19:52:00,
2013-05-08 16:02:00,61.0,59.0,29.97,East,94,1.0,6.0,94,0.00,,,0.71,,2013-05-08 20:02:00,
2013-05-08 16:11:00,61.0,59.0,29.97,East,94,1.0,6.0,94,0.00,,,0.71,,2013-05-08 20:11:00,
2013-05-08 16:22:00,61.0,59.0,29.97,East,98,3.0,10.0,94,0.00,,,0.71,,2013-05-08 20:22:00,
2013-05-08 16:32:00,62.0,60.0,29.97,ESE,109,1.0,7.0,94,0.00,,,0.71,,2013-05-08 20:32:00,
2013-05-08 16:42:00,62.0,60.0,29.98,SSE,159,1.0,8.0,94,0.00,,,0.71,,2013-05-08 20:42:00,
2013-05-08 16:52:00,62.0,60.0,29.98,SSE,159,1.0,8.0,94,0.00,,,0.71,,2013-05-08 20:52:00,
2013-05-08 17:01:00,62.0,60.0,29.98,ENE,64,1.0,9.0,94,0.00,,,0.71,,2013-05-08 21:01:00,
2013-05-08 17:12:00,62.0,60.0,29.97,East,88,1.0,9.0,94,0.00,,,0.71,,2013-05-08 21:12:00,
2013-05-08 17:21:00,62.0,60.0,29.97,East,88,1.0,9.0,94,0.00,,,0.71,,2013-05-08 21:21:00,
2013-05-08 17:33:00,62.0,60.0,29.97,SSE,156,0.0,4.0,94,0.00,,,0.71,,2013-05-08 21:33:00,
2013-05-08 17:43:00,62.0,60.0,29.98,East,101,2.0,8.0,94,0.00,,,0.71,,2013-05-08 21:43:00,
2013-05-08 17:52:00,62.0,60.0,29.98,East,101,2.0,8.0,94,0.00,,,0.71,,2013-05-08 21:52:00,
2013-05-08 18:03:00,62.0,60.0,29.97,ENE,60,3.0,5.0,94,0.00,,,0.71,,2013-05-08 22:03:00,
2013-05-08 18:12:00,62.0,60.0,29.96,East,99,1.0,7.0,94,0.00,,,0.71,,2013-05-08 22:12:00,
2013-05-08 18:22:00,62.0,60.0,29.96,East,99,1.0,7.0,94,0.00,,,0.71,,2013-05-08 22:22:00,
2013-05-08 18:33:00,61.0,59.0,29.97,East,88,2.0,7.0,93,0.00,,,0.71,,2013-05-08 22:33:00,
2013-05-08 18:42:00,61.0,59.0,29.97,SE,128,0.0,8.0,93,0.00,,,0.71,,2013-05-08 22:42:00,
2013-05-08 18:52:00,61.0,59.0,29.97,SE,128,0.0,8.0,93,0.00,,,0.71,,2013-05-08 22:52:00,
2013-05-08 19:01:00,61.0,59.0,29.97,ENE,62,2.0,8.0,93,0.00,,,0.71,,2013-05-08 23:01:00,
2013-05-08 19:12:00,61.0,59.0,29.97,SSE,151,2.0,6.0,92,0.00,,,0.71,,2013-05-08 23:12:00,
2013-05-08 19:22:00,61.0,59.0,29.97,SSE,151,2.0,6.0,92,0.00,,,0.71,,2013-05-08 23:22:00,
2013-05-08 19:32:00,61.0,59.0,29.97,ESE,107,1.0,7.0,92,0.00,,,0.71,,2013-05-08 23:32:00,
2013-05-08 19:42:00,61.0,59.0,29.97,East,99,0.0,7.0,92,0.00,,,0.71,,2013-05-08 23:42:00,
2013-05-08 19:52:00,61.0,59.0,29.97,East,99,0.0,7.0,92,0.00,,,0.71,,2013-05-08 23:52:00,
2013-05-08 20:02:00,61.0,59.0,29.97,ESE,112,1.0,3.0,92,0.00,,,0.71,,2013-05-09 00:02:00,
2013-05-08 20:12:00,60.0,58.0,29.98,SE,124,0.0,1.0,92,0.00,,,0.71,,2013-05-09 00:12:00,
2013-05-08 20:21:00,60.0,58.0,29.98,SE,124,0.0,1.0,92,0.00,,,0.71,,2013-05-09 00:21:00,
2013-05-08 20:32:00,60.0,57.0,29.98,NNW,345,1.0,3.0,91,0.00,,,0.71,,2013-05-09 00:32:00,
2013-05-08 20:42:00,60.0,57.0,29.98,ESE,103,0.0,3.0,91,0.00,,,0.71,,2013-05-09 00:42:00,
2013-05-08 20:52:00,60.0,57.0,29.98,ESE,103,0.0,3.0,91,0.00,,,0.71,,2013-05-09 00:52:00,
2013-05-08 21:01:00,59.0,56.0,29.99,NE,49,1.0,5.0,91,0.00,,,0.71,,2013-05-09 01:01:00,
2013-05-08 21:12:00,59.0,56.0,30.00,SE,137,0.0,3.0,91,0.00,,,0.71,,2013-05-09 01:12:00,
2013-05-08 21:22:00,59.0,56.0,30.00,SE,137,0.0,3.0,91,0.00,,,0.71,,2013-05-09 01:22:00,
2013-05-08 21:32:00,59.0,56.0,30.00,West,260,0.0,3.0,90,0.00,,,0.71,,2013-05-09 01:32:00,
2013-05-08 21:42:00,58.0,55.0,30.01,ESE,109,2.0,5.0,90,0.00,,,0.71,,2013-05-09 01:42:00,
2013-05-08 21:52:00,58.0,55.0,30.01,ESE,109,2.0,5.0,90,0.00,,,0.71,,2013-05-09 01:52:00,
2013-05-08 22:02:00,58.0,55.0,30.01,East,100,0.0,2.0,90,0.00,,,0.71,,2013-05-09 02:02:00,
2013-05-08 22:12:00,58.0,55.0,30.01,East,100,0.0,1.0,90,0.00,,,0.71,,2013-05-09 02:12:00,
2013-05-08 22:22:00,58.0,55.0,30.01,East,100,0.0,1.0,90,0.00,,,0.71,,2013-05-09 02:22:00,
2013-05-08 22:32:00,57.0,54.0,30.01,East,100,0.0,0.0,90,0.00,,,0.71,,2013-05-09 02:32:00,
2013-05-08 22:42:00,57.0,54.0,30.01,East,100,0.0,0.0,90,0.00,,,0.71,,2013-05-09 02:42:00,
2013-05-08 22:52:00,57.0,54.0,30.01,East,100,0.0,0.0,90,0.00,,,0.71,,2013-05-09 02:52:00,
2013-05-08 23:01:00,56.0,53.0,30.01,East,100,0.0,0.0,90,0.00,,,0.71,,2013-05-09 03:01:00,
2013-05-08 23:11:00,56.0,53.0,30.01,East,100,0.0,0.0,90,0.00,,,0.71,,2013-05-09 03:11:00,
2013-05-08 23:21:00,56.0,53.0,30.01,East,100,0.0,0.0,90,0.00,,,0.71,,2013-05-09 03:21:00,
2013-05-08 23:33:00,55.0,52.0,30.00,East,100,0.0,0.0,90,0.00,,,0.71,,2013-05-09 03:33:00,
2013-05-08 23:43:00,55.0,52.0,30.00,East,100,0.0,0.0,90,0.00,,,0.71,,2013-05-09 03:43:00,
2013-05-08 23:52:00,55.0,52.0,30.00,East,100,0.0,0.0,90,0.00,,,0.71,,2013-05-09 03:52:00,